Погода в Эль-Медано

Испания     28°02′45″N   16°32′15″W
темп.,
°C
ветер,
м/с
пор.,
м/с
влажн.,
%
обл.,
%
осадки,
мм/ч
давл.,
гПа
погр.,
м
13 июня, вс
вс1301:00+20св1112807 0.0 1020342
04:00+20св1112805 0.0 1019350
07:00+19св1112804 0.0 1019362
10:00+21св1212735 0.0 1021463
13:00+22всв13136911 0.0 1021463
16:00+21св151472100 0.0 1020458
19:00+21св1314725 0.0 1019396
22:00+20св1213814 0.0 1021354
14 июня, пн
пн1401:00+20св911801 0.0 1021316
04:00+20св99830 0.0 1019299
07:00+20св11127990 0.0 1020367
10:00+21св11117598 0.0 1022452
13:00+21всв10117677 0.0 1022441
16:00+21всв11127430 0.0 1019377
19:00+20св91180100 0.0 1019391
22:00+20св9108097 0.0 1020312
15 июня, вт
вт1501:00+20св9108196 0.0 1020359
04:00+20св10108374 0.0 1018341
07:00+19св778556 0.0 1018319
10:00+20св667777 0.0 1018441
13:00+21всв66750 0.0 1018432
16:00+21всв55760 0.0 1018421
19:00+21всв24790 0.0 1017328
22:00+20вюв128611 0.0 1018143
16 июня, ср
ср1601:00+20в22830 0.0 1019216
04:00+19св22800 0.0 1017249
07:00+19вюв12820 0.0 1017242
10:00+21в33740 0.0 1018327
13:00+21всв65755 0.0 1019479
16:00+21всв77779 0.0 1018505
19:00+21всв69750 0.0 1018419
22:00+20всв57810 0.0 1019271
17 июня, чт
чт1701:00+20ссв23830 0.0 1019130
04:00+20всв23850 0.0 1018125
07:00+19св33840 0.0 1018153
10:00+21всв65760 0.0 1019351
13:00+21всв877713 0.0 1019495
16:00+21всв88758 0.0 1018512
19:00+21всв89750 0.0 1018376
22:00+20всв9118375 0.0 1019335